Date String (YYYY-MM-DD hh:mm:ss) UTC,Instrument flags,absolute air pressure of the measurement (hPa),sample flow rate (lpm),inlet stack bypass flow (lpm),air temperature of the measurement (°C),ambient temperature measured by the external sensor (°C),aerosol sample conditioner tube jacket temperature (°C),OPC LED temperature (°C),internal box temperature (°C),relative humidity of the measurement (%),span deviation,mass concentration of particles derived from Lorenz-Mie calculation of OPC scattering (μg/m³),mass concentration of particles derived from Lorenz-Mie calculation of OPC scattering (μg/m³),mass concentration of particles derived from Lorenz-Mie calculation of OPC scattering (μg/m³)
DateTimeUTC,F1_M11,P_M11,Q1_M11,Q2_M11,T1_M11,T2_M11,T3_M11,T4_M11,T5_M11,U1_M11,ZSPAN_M11,X0_M11,X2_M11,X1_M11
2024-02-18 17:00:00,SystemResetWarning,0825.4,5.00,000.00,018.7,018.3,000.0,027.0,020.5,12.8,0000.0,0003.69,0001.77,0001.42
2024-02-18 17:01:00,SystemResetWarning,0825.4,5.01,000.00,018.7,018.3,000.0,027.0,020.5,12.7,0000.0,0003.67,0001.75,0001.40
2024-02-18 17:02:00,SystemResetWarning,0825.4,5.00,000.00,018.7,018.3,000.0,027.1,020.5,13.1,0000.0,0003.77,0001.78,0001.39
2024-02-18 17:03:00,SystemResetWarning,0825.4,5.00,000.00,018.7,018.4,000.0,027.1,020.5,12.7,0000.0,0003.90,0001.81,0001.38
2024-02-18 17:04:00,SystemResetWarning,0825.4,5.01,000.00,018.8,018.4,000.0,027.1,020.5,12.9,0000.0,0003.62,0001.81,0001.38
2024-02-18 17:05:00,SystemResetWarning,0825.4,5.00,000.00,018.8,018.4,000.0,027.1,020.5,12.3,0000.0,0003.34,0001.83,0001.37
2024-02-18 17:06:00,SystemResetWarning,0825.5,4.99,000.00,018.8,018.4,000.0,027.1,020.5,12.5,0000.0,0004.53,0001.84,0001.37
2024-02-18 17:07:00,SystemResetWarning,0825.4,4.99,000.00,018.8,018.4,000.0,027.1,020.5,12.1,0000.0,0004.66,0001.86,0001.38
2024-02-18 17:08:00,SystemResetWarning,0825.4,4.99,000.00,018.8,018.4,000.0,027.1,020.5,12.3,0000.0,0005.34,0001.86,0001.38
2024-02-18 17:09:00,SystemResetWarning,0825.2,5.00,000.00,018.8,018.4,000.0,027.1,020.5,13.0,0000.0,0005.89,0001.91,0001.41
2024-02-18 17:10:00,SystemResetWarning,0825.2,5.00,000.00,018.8,018.4,000.0,027.1,020.5,12.5,0000.0,0005.74,0001.93,0001.44
2024-02-18 17:11:00,SystemResetWarning,0825.2,5.00,000.00,018.8,018.4,000.0,027.1,020.5,13.0,0000.0,0005.76,0001.94,0001.45
2024-02-18 17:12:00,SystemResetWarning,0825.2,5.00,000.00,018.8,018.4,000.0,027.1,020.5,12.8,0000.0,0005.63,0001.91,0001.45
2024-02-18 17:13:00,SystemResetWarning,0825.2,5.00,000.00,018.8,018.4,000.0,027.1,020.5,12.4,0000.0,0005.54,0001.87,0001.44
2024-02-18 17:14:00,SystemResetWarning,0825.2,5.00,000.00,018.8,018.4,000.0,027.1,020.5,12.3,0000.0,0005.47,0001.84,0001.43
2024-02-18 17:15:00,SystemResetWarning,0825.2,5.00,000.00,018.8,018.4,000.0,027.1,020.5,12.9,0000.0,0005.57,0001.84,0001.42
2024-02-18 17:16:00,SystemResetWarning,0825.2,5.01,000.00,018.8,018.4,000.0,027.1,020.5,12.5,0000.0,0005.49,0001.83,0001.42
2024-02-18 17:17:00,SystemResetWarning,0825.3,5.00,000.00,018.8,018.4,000.0,027.1,020.5,12.2,0000.0,0004.31,0001.86,0001.44
2024-02-18 17:18:00,SystemResetWarning,0825.2,5.00,000.00,018.8,018.4,000.0,027.1,020.5,12.2,0000.0,0004.21,0001.90,0001.47
2024-02-18 17:19:00,SystemResetWarning,0825.2,4.99,000.00,018.8,018.4,000.0,027.2,020.5,12.3,0000.0,0003.54,0001.90,0001.49
2024-02-18 17:20:00,SystemResetWarning,0825.1,5.00,000.00,018.8,018.4,000.0,027.2,020.5,12.4,0000.0,0002.92,0001.89,0001.48
2024-02-18 17:21:00,SystemResetWarning,0825.1,5.00,000.00,018.8,018.4,000.0,027.2,020.6,12.6,0000.0,0002.82,0001.87,0001.47
2024-02-18 17:22:00,SystemResetWarning,0825.1,5.00,000.00,018.8,018.4,000.0,027.2,020.6,12.7,0000.0,0002.71,0001.87,0001.49
2024-02-18 17:23:00,SystemResetWarning,0825.1,5.01,000.00,018.8,018.4,000.0,027.2,020.6,13.0,0000.0,0002.73,0001.89,0001.51
2024-02-18 17:24:00,SystemResetWarning,0825.1,5.01,000.00,018.8,018.4,000.0,027.2,020.6,13.1,0000.0,0002.70,0001.89,0001.53
2024-02-18 17:25:00,SystemResetWarning,0825.1,5.00,000.00,018.9,018.4,000.0,027.2,020.6,12.3,0000.0,0002.71,0001.90,0001.55
2024-02-18 17:26:00,SystemResetWarning,0825.1,5.00,000.00,018.9,018.5,000.0,027.2,020.6,12.3,0000.0,0002.58,0001.92,0001.59
2024-02-18 17:27:00,SystemResetWarning,0825.1,5.00,000.00,018.9,018.5,000.0,027.2,020.6,12.7,0000.0,0002.56,0001.93,0001.62
2024-02-18 17:28:00,SystemResetWarning,0825.1,4.99,000.00,018.9,018.5,000.0,027.2,020.6,12.9,0000.0,0002.64,0001.93,0001.62
2024-02-18 17:29:00,SystemResetWarning,0825.0,5.00,000.00,018.9,018.5,000.0,027.2,020.6,12.6,0000.0,0002.67,0001.92,0001.62
2024-02-18 17:30:00,SystemResetWarning,0825.0,5.00,000.00,018.9,018.5,000.0,027.2,020.6,12.5,0000.0,0002.76,0001.97,0001.65
2024-02-18 17:31:00,SystemResetWarning,0824.9,5.01,000.00,018.9,018.5,000.0,027.2,020.6,12.5,0000.0,0002.70,0001.99,0001.70
2024-02-18 17:32:00,SystemResetWarning,0825.1,5.01,000.00,018.9,018.5,000.0,027.2,020.7,12.7,0000.0,0002.73,0002.03,0001.76
2024-02-18 17:33:00,SystemResetWarning,0825.1,5.00,000.00,018.9,018.5,000.0,027.2,020.6,13.0,0000.0,0002.74,0002.06,0001.81
2024-02-18 17:34:00,SystemResetWarning,0825.1,4.99,000.00,018.9,018.5,000.0,027.2,020.7,13.2,0000.0,0002.84,0002.10,0001.87
2024-02-18 17:35:00,SystemResetWarning,0825.1,5.00,000.00,018.9,018.5,000.0,027.3,020.7,13.6,0000.0,0002.95,0002.16,0001.93
2024-02-18 17:36:00,SystemResetWarning,0825.1,5.00,000.00,018.9,018.5,000.0,027.3,020.7,12.4,0000.0,0002.96,0002.20,0001.97
2024-02-18 17:37:00,SystemResetWarning,0825.0,5.00,000.00,018.9,018.5,000.0,027.3,020.7,12.2,0000.0,0002.93,0002.19,0001.96
2024-02-18 17:38:00,SystemResetWarning,0824.9,5.00,000.00,018.9,018.5,000.0,027.3,020.7,12.2,0000.0,0002.91,0002.18,0001.94
2024-02-18 17:39:00,SystemResetWarning,0824.9,5.00,000.00,019.0,018.6,000.0,027.3,020.7,12.6,0000.0,0002.90,0002.16,0001.93
2024-02-18 17:40:00,SystemResetWarning,0824.9,4.99,000.00,019.0,018.6,000.0,027.3,020.7,12.0,0000.0,0002.86,0002.16,0001.93
2024-02-18 17:41:00,SystemResetWarning,0824.9,5.00,000.00,019.0,018.6,000.0,027.3,020.7,11.9,0000.0,0002.80,0002.15,0001.93
2024-02-18 17:42:00,SystemResetWarning,0824.9,5.00,000.00,019.0,018.6,000.0,027.3,020.7,12.4,0000.0,0002.76,0002.11,0001.90
2024-02-18 17:43:00,SystemResetWarning,0824.9,5.01,000.00,019.0,018.6,000.0,027.3,020.8,12.3,0000.0,0002.74,0002.05,0001.86
2024-02-18 17:44:00,SystemResetWarning,0824.9,5.01,000.00,019.0,018.6,000.0,027.3,020.8,12.3,0000.0,0002.72,0002.02,0001.83
2024-02-18 17:45:00,SystemResetWarning,0824.9,5.00,000.00,019.0,018.7,000.0,027.3,020.8,12.8,0000.0,0002.72,0002.01,0001.82
2024-02-18 17:46:00,SystemResetWarning,0824.8,5.00,000.00,019.0,018.7,000.0,027.3,020.8,12.8,0000.0,0002.75,0002.03,0001.81
2024-02-18 17:47:00,SystemResetWarning,0824.8,4.99,000.00,019.1,018.7,000.0,027.3,020.8,13.2,0000.0,0003.74,0002.02,0001.78
2024-02-18 17:48:00,SystemResetWarning,0824.8,4.99,000.00,019.1,018.7,000.0,027.4,020.8,13.5,0000.0,0003.85,0002.05,0001.79
2024-02-18 17:49:00,SystemResetWarning,0824.9,5.00,000.00,019.1,018.7,000.0,027.4,020.8,13.5,0000.0,0003.88,0002.07,0001.83
2024-02-18 17:50:00,SystemResetWarning,0824.9,5.00,000.00,019.1,018.7,000.0,027.4,020.8,13.6,0000.0,0004.91,0002.11,0001.86
2024-02-18 17:51:00,SystemResetWarning,0824.9,5.00,000.00,019.1,018.7,000.0,027.4,020.8,13.7,0000.0,0005.32,0002.15,0001.88
2024-02-18 17:52:00,SystemResetWarning,0824.9,5.00,000.00,019.1,018.7,000.0,027.4,020.9,12.9,0000.0,0005.33,0002.18,0001.92
2024-02-18 17:53:00,SystemResetWarning,0824.9,5.01,000.00,019.1,018.8,000.0,027.4,020.9,12.5,0000.0,0005.37,0002.20,0001.95
2024-02-18 17:54:00,SystemResetWarning,0824.8,5.01,000.00,019.1,018.8,000.0,027.4,020.9,12.7,0000.0,0005.39,0002.21,0001.96
2024-02-18 17:55:00,SystemResetWarning,0824.7,5.00,000.00,019.1,018.8,000.0,027.4,020.9,13.3,0000.0,0005.46,0002.23,0001.94
2024-02-18 17:56:00,SystemResetWarning,0824.8,5.00,000.00,019.1,018.8,000.0,027.4,020.9,13.5,0000.0,0005.43,0002.19,0001.90
2024-02-18 17:57:00,SystemResetWarning,0824.8,4.99,000.00,019.1,018.8,000.0,027.4,020.9,13.8,0000.0,0005.36,0002.11,0001.82
2024-02-18 17:58:00,SystemResetWarning,0824.9,4.99,000.00,019.2,018.8,000.0,027.4,020.9,12.8,0000.0,0004.61,0002.03,0001.78
2024-02-18 17:59:00,SystemResetWarning,0824.9,5.00,000.00,019.2,018.8,000.0,027.5,020.9,13.0,0000.0,0004.13,0001.97,0001.73
